Location: Helsinki
(60.1699°N, 24.9384°E)
Time: 23:52:31
(UTC+02:00)

A-11 Canister half - Pass Details

Date: 31 October 2020
Orbit: 1516 x 1684 km, 47.2° (Epoch: 26 November)

Event Time Altitude Azimuth Distance (km) Brightness Sun altitude
Rises 19:29:57 0° 206° (SSW) 4,930 11.8 -23.1°
Reaches altitude 10° 19:33:53 10° 194° (SSW) 3,939 11.2 -23.6°
Enters shadow 19:41:08 25° 148° (SSE) 2,920 10.0 -24.5°
Maximum altitude 19:41:24 25° 146° (SE) 2,917 - -24.5°
Drops below altitude 10° 19:48:50 10° 97° (E) 3,882 - -25.4°
Sets 19:52:38 0° 85° (E) 4,845 - -25.9°
